Evergreen, AL

10:05 PM CDT on April 23, 2017 (GMT -0500)
Middleton

Weather History for KGZH - June, 2014

Change the Weather History Date:

Friday, June 6, 2014

  Actual Average (KPRN) Record (KPRN)
Temperature  
Mean Temperature 81 °F -  
Max Temperature 93 °F 88 °F 105 °F (1985)
Min Temperature 71 °F 64 °F 55 °F (1954)
Cooling Degree Days 16    
Growing Degree Days 31 (Base 50)    
Moisture  
Dew Point 72 °F    
Average Humidity 74    
Maximum Humidity 93    
Minimum Humidity 50    
Precipitation  
Precipitation 0.00 in - - ()
Sea Level Pressure  
Sea Level Pressure 29.96 in    
Wind  
Wind Speed 2 mph (SW)    
Max Wind Speed 16 mph    
Max Gust Speed 24 mph    
Visibility 10 miles    
Events      
Averages and records for this station are not official NWS values.
T = Trace of Precipitation, MM = Missing Value Source: NWS Daily Summary

Daily Weather History Graph

Daily Weather History Graph

Search for Another Location

Airport or City:

Trip Planner

Search our weather history database for the weather conditions in past years. The results will help you decide how hot, cold, wet, or windy it might be!

Date:

Astronomy

Jun. 06, 2014 Rise Set
Actual Time 5:43 AM CDT 7:50 PM CDT
Civil Twilight 5:15 AM CDT 8:18 PM CDT
Nautical Twilight 4:41 AM CDT 8:52 PM CDT
Astronomical Twilight 4:05 AM CDT 9:28 PM CDT
Moon 1:32 PM CDT (6/6) 1:10 AM CDT (6/6)
Length of Visible Light 15h 02m
Length of Day
14h 07m
First Quarter, 58% of the Moon is Illuminated
Jun 6
First Quarter
Jun 12
Full
Jun 19
Last Quarter
Jun 27
New
Jul 5
First Quarter

Hourly Weather History & Observations

Time (CDT) Temp. Heat Index Dew Point Humidity Pressure Visibility Wind Dir Wind Speed Gust Speed Precip Events Conditions
12:53 AM 73.0 °F - 71.1 °F 93% 29.95 in 10.0 mi Calm Calm - N/A   Clear
1:53 AM 73.0 °F - 71.1 °F 93% 29.95 in 10.0 mi South 3.5 mph - N/A   Clear
2:53 AM 72.0 °F - 70.0 °F 93% 29.95 in 9.0 mi Calm Calm - N/A   Clear
3:53 AM 71.1 °F - 69.1 °F 93% 29.95 in 7.0 mi Calm Calm - N/A   Clear
4:53 AM 71.1 °F - 69.1 °F 93% 29.97 in 7.0 mi Calm Calm - N/A   Clear
5:53 AM 71.1 °F - 69.1 °F 93% 29.99 in 7.0 mi Calm Calm - N/A   Partly Cloudy
6:53 AM 73.0 °F - 71.1 °F 93% 30.00 in 9.0 mi Calm Calm - N/A   Clear
7:53 AM 78.1 °F - 73.9 °F 87% 30.00 in 10.0 mi Calm Calm - N/A   Clear
8:53 AM 82.9 °F 89.4 °F 73.9 °F 74% 29.99 in 10.0 mi Variable 4.6 mph - N/A   Clear
9:40 AM 84.0 °F 91.9 °F 75.0 °F 74% 29.98 in 10.0 mi West 5.8 mph - N/A   Mostly Cloudy
10:08 AM 84.9 °F 92.1 °F 73.9 °F 69% 29.99 in 10.0 mi Calm Calm - N/A   Scattered Clouds
10:17 AM 86.0 °F 95.1 °F 75.0 °F 70% 29.98 in 10.0 mi Calm Calm - N/A   Mostly Cloudy
10:37 AM 86.0 °F 95.1 °F 75.0 °F 70% 29.98 in 10.0 mi West 4.6 mph - N/A   Mostly Cloudy
10:46 AM 86.0 °F 93.8 °F 73.9 °F 67% 29.98 in 10.0 mi Variable 3.5 mph - N/A   Scattered Clouds
10:53 AM 87.1 °F 95.4 °F 73.9 °F 65% 29.96 in 10.0 mi Calm Calm - N/A   Scattered Clouds
11:53 AM 89.1 °F 97.0 °F 73.0 °F 59% 29.95 in 10.0 mi SW 6.9 mph - N/A   Scattered Clouds
12:53 PM 90.0 °F 96.9 °F 72.0 °F 55% 29.95 in 10.0 mi WSW 5.8 mph - N/A   Scattered Clouds
1:53 PM 91.0 °F 98.2 °F 72.0 °F 53% 29.94 in 10.0 mi West 4.6 mph - N/A   Scattered Clouds
2:53 PM 91.9 °F 98.4 °F 71.1 °F 50% 29.93 in 10.0 mi Variable 5.8 mph - N/A   Partly Cloudy
4:53 PM 91.9 °F 99.5 °F 72.0 °F 52% 29.90 in 10.0 mi WSW 8.1 mph - N/A   Clear
5:53 PM 91.0 °F 98.2 °F 72.0 °F 53% 29.91 in 10.0 mi WSW 5.8 mph - N/A   Clear
6:53 PM 87.1 °F 95.4 °F 73.9 °F 65% 29.92 in 10.0 mi WSW 3.5 mph - N/A   Clear
7:53 PM 82.9 °F 90.2 °F 75.0 °F 77% 29.94 in 10.0 mi Calm Calm - N/A   Clear
8:53 PM 77.0 °F - 68.0 °F 74% 29.97 in 10.0 mi NE 16.1 mph 24.2 mph N/A   Mostly Cloudy
9:53 PM 73.9 °F - 66.9 °F 79% 29.98 in 10.0 mi ENE 3.5 mph - N/A   Clear
10:53 PM 73.9 °F - 66.9 °F 79% 29.99 in 10.0 mi SW 3.5 mph - N/A   Partly Cloudy
11:53 PM 73.0 °F - 66.9 °F 81% 29.97 in 10.0 mi South 3.5 mph - N/A   Clear